Location: Chervonnoye
(48.6000°N, 34.4000°E)
Time: 20:50:25
(UTC+00:00)

Envisat - Visible Passes

Search period start: 21 September 2021 00:00
Search period end: 01 October 2021 00:00
Orbit: 764 x 766 km, 98.2° (Epoch: 21 September)

Date Brightness Start Highest point End Pass type
(mag) Time Alt. Az. Time Alt. Az. Time Alt. Az.
21 Sep 6.0 01:29:20 10° ENE 01:31:42 13° E 01:34:04 10° ESE visible
22 Sep 4.3 02:29:39 10° NNE 02:34:31 44° E 02:39:21 10° S visible
23 Sep 5.6 01:53:27 10° NE 01:57:22 22° E 02:01:16 10° SE visible
24 Sep 6.3 01:19:20 10° ENE 01:20:01 10° E 01:20:42 10° E visible
24 Sep 3.4 02:54:50 10° NNE 02:59:56 73° ESE 03:05:01 10° S visible
25 Sep 4.7 02:18:16 10° NNE 02:22:56 35° E 02:27:35 10° SSE visible
26 Sep 5.9 01:42:20 10° NE 01:45:43 18° E 01:49:06 10° SE visible
27 Sep 3.7 02:43:22 10° NNE 02:48:24 59° E 02:53:25 10° S visible
28 Sep 5.1 02:06:55 10° NE 02:11:20 29° E 02:15:42 10° SSE visible
29 Sep 6.0 01:31:23 10° NE 01:34:04 14° E 01:36:44 10° ESE visible
30 Sep 4.2 02:31:55 10° NNE 02:36:51 47° E 02:41:44 10° S visible
